Погода в Бержераке

Франция     44°51′10″N   0°29′35″E
темп.,
°C
ветер,
м/с
пор.,
м/с
влажн.,
%
обл.,
%
осадки,
мм/ч
давл.,
гПа
погр.,
м
16 мая, вс
вс1623:00+12ююз3798100 0.1 1012301
02:00+12ю3699100 1.6 1010256
05:00+12ююз4899100 3.4 1009324
08:00+12ююз3799100 8.0 1009289
11:00+13зюз4798100 4.1 1010406
14:00+16з61179100 4.9 10111124
17:00+13зюз71279100 0.3 1013635
20:00+12юз7118814 0.5 1014555
17 мая, пн
пн1723:00+9юз5119636 0.2 1016292
02:00+9юз41096100 0.4 1016308
05:00+8юз41096100 0.3 1016273
08:00+10юз51195100 0.5 1017529
11:00+13зюз7107676 0.4 10181163
14:00+16з7105993 1.0 10181964
17:00+16з8106165 0.4 10181755
20:00+13з610735 0.9 1020767
18 мая, вт
вт1823:00+9зюз37922 0.0 1022142
02:00+8зюз3997100 0.2 1023212
05:00+7зюз39977 0.1 1024199
08:00+9зюз39943 0.2 1025262
11:00+14з576610 0.1 10261439
14:00+17зсз5750100 0.1 10252185
17:00+18зсз564976 0.0 10252102
20:00+15сз476726 0.0 1025273
19 мая, ср
ср1923:00+9сз228412 0.0 102722
02:00+7зсз11915 0.0 102810
05:00+6юз119252 0.0 102710
08:00+9ююз1289100 0.0 102888
11:00+14зюз237472 0.1 1028936
14:00+15з2366100 0.2 1027858
17:00+19зсз125289 0.0 10251446
20:00+17в226776 0.0 102449
20 мая, чт
чт2023:00+11вюв22795 0.0 102416
02:00+10юв33825 0.0 102336
05:00+9юв35855 0.0 102180
08:00+11юв410815 0.0 1020234
11:00+18ю57625 0.0 1019486
14:00+23з68475 0.0 10191738
17:00+21з81160100 0.0 10191562
20:00+16зсз5873100 0.1 1021680